EW5024 Weather Reports


Display with metric or nautical units.
time (UTC)temp
F
wind
direction
speed
MPH
gust
MPH
rain 1hr
in
rain 24hr
in
rain mn
in
humidity
%
barometer
mb
20260831043039 65 304 0.0 1.0 0.00 0.00 0.00 80 1015.7
20260831041548 65 304 0.0 2.0 0.00 0.00 0.00 80 1015.7
20260831040040 65 304 0.0 2.0 0.00 0.00 0.00 80 1015.6
20260831034540 65 304 0.0 1.0 0.00 0.00 0.00 80 1015.5
20260831033042 65 304 0.0 3.0 0.00 0.00 0.00 79 1015.6
20260831031535 66 298 1.0 2.0 0.00 0.00 0.00 79 1015.5
20260831030032 66 298 0.0 2.0 0.00 0.00 0.00 78 1015.5
20260831024532 66 298 0.0 0.0 0.00 0.00 0.00 79 1015.6
20260831023030 66 298 0.0 2.0 0.00 0.00 0.00 79 1015.6
20260831021542 67 259 1.0 3.0 0.00 0.00 0.00 77 1015.6
20260831020028 67 222 0.0 0.0 0.00 0.00 0.00 77 1015.5
20260831014526 67 222 0.0 0.0 0.00 0.00 0.00 76 1015.6
20260831013024 68 222 1.0 3.0 0.00 0.00 0.00 75 1015.5
20260831011537 69 200 0.0 3.0 0.00 0.00 0.00 74 1015.6
20260831010020 70 209 0.0 4.0 0.00 0.00 0.00 70 1015.5
20260831004515 71 209 0.0 2.0 0.00 0.00 0.00 69 1015.5
20260831003017 71 209 2.0 5.0 0.00 0.00 0.00 68 1015.5
20260831001525 72 194 2.0 4.0 0.00 0.00 0.00 65 1015.6
20260831000015 72 196 2.0 4.0 0.00 0.00 0.00 66 1015.7
20260830234519 71 251 0.0 3.0 0.00 0.00 0.00 69 1015.6
20260830233013 71 253 0.0 0.0 0.00 0.00 0.00 71 1015.6
20260830231512 70 296 0.0 3.0 0.00 0.00 0.00 71 1015.7
20260830230008 72 294 1.0 4.0 0.00 0.00 0.00 69 1015.7
20260830224505 72 236 0.0 4.0 0.00 0.00 0.00 68 1015.7
20260830223006 73 237 2.0 3.0 0.00 0.00 0.00 67 1015.6
20260830221600 73 247 2.0 3.0 0.00 0.00 0.00 66 1015.5
20260830220056 74 248 0.0 3.0 0.00 0.00 0.00 63 1015.4
20260830214557 75 115 0.0 4.0 0.00 0.00 0.00 62 1015.4
20260830213054 75 139 0.0 3.0 0.00 0.00 0.00 60 1015.3
20260830211555 77 209 3.0 4.0 0.00 0.00 0.00 59 1015.2
20260830210053 78 112 2.0 7.0 0.00 0.00 0.00 55 1015.0
20260830204553 78 98 5.0 9.0 0.00 0.00 0.00 55 1014.9
20260830203053 78 126 3.0 8.0 0.00 0.00 0.00 54 1014.7
20260830201552 79 81 4.0 8.0 0.00 0.00 0.00 53 1014.6
20260830200051 79 127 3.0 7.0 0.00 0.00 0.00 52 1014.4
20260830194602 80 207 6.0 16.0 0.00 0.00 0.00 51 1014.4
20260830193050 81 183 6.0 14.0 0.00 0.00 0.00 49 1014.3
20260830191549 82 251 4.0 17.0 0.00 0.00 0.00 48 1014.2
20260830190049 83 198 10.0 17.0 0.00 0.00 0.00 45 1014.1
20260830184547 83 192 11.0 21.0 0.00 0.00 0.00 45 1014.0
20260830183048 83 163 10.0 23.0 0.00 0.00 0.00 46 1013.6
20260830181547 83 202 9.0 20.0 0.00 0.00 0.00 45 1013.3
20260830180046 83 175 9.0 20.0 0.00 0.00 0.00 45 1013.1
20260830174608 84 189 9.0 22.0 0.00 0.00 0.00 45 1012.9
20260830173044 84 192 14.0 24.0 0.00 0.00 0.00 44 1012.8
20260830171546 84 188 12.0 22.0 0.00 0.00 0.00 44 1012.7
20260830170043 84 190 9.0 20.0 0.00 0.00 0.00 44 1012.8
20260830164542 84 196 14.0 22.0 0.00 0.00 0.00 44 1012.7
20260830163052 84 209 11.0 18.0 0.00 0.00 0.00 45 1012.7
20260830161553 85 227 11.0 17.0 0.00 0.00 0.00 45 1012.6
20260830160041 85 171 15.0 25.0 0.00 0.00 0.00 44 1012.7
20260830154539 85 184 12.0 23.0 0.00 0.00 0.00 44 1012.6
20260830153038 86 159 7.0 17.0 0.00 0.00 0.00 44 1012.6
20260830151545 86 176 13.0 22.0 0.00 0.00 0.00 43 1012.7
20260830150036 87 174 11.0 22.0 0.00 0.00 0.00 43 1012.7
20260830144536 87 184 10.0 20.0 0.00 0.00 0.00 43 1012.6
20260830143034 87 182 11.0 22.0 0.00 0.00 0.00 44 1012.6
20260830141533 87 186 8.0 17.0 0.00 0.00 0.00 43 1012.7
20260830140032 88 202 7.0 19.0 0.00 0.00 0.00 43 1012.9
20260830134530 88 184 9.0 18.0 0.00 0.00 0.00 41 1013.0
20260830133028 88 190 13.0 19.0 0.00 0.00 0.00 40 1013.2
20260830131526 89 218 10.0 19.0 0.00 0.00 0.00 39 1013.3
20260830130025 89 175 8.0 13.0 0.00 0.00 0.00 38 1013.3
20260830124534 90 167 7.0 14.0 0.00 0.00 0.00 37 1013.5
20260830123119 89 153 6.0 17.0 0.00 0.00 0.00 39 1013.6
20260830121516 88 232 0.0 6.0 0.00 0.00 0.00 44 1013.8
20260830120011 86 211 3.0 6.0 0.00 0.00 0.00 47 1014.0
20260830114508 86 232 3.0 8.0 0.00 0.00 0.00 47 1014.2
20260830113005 85 265 3.0 8.0 0.00 0.00 0.00 48 1014.3
20260830111501 85 301 1.0 4.0 0.00 0.00 0.00 46 1014.5
20260830110100 85 183 2.0 6.0 0.00 0.00 0.00 46 1014.7
20260830104603 84 301 1.0 3.0 0.00 0.00 0.00 48 1015.0
20260830103054 83 85 3.0 6.0 0.00 0.00 0.00 50 1015.3
20260830101559 81 43 2.0 4.0 0.00 0.00 0.00 52 1015.5
20260830100051 80 327 2.0 6.0 0.00 0.00 0.00 54 1015.9
20260830094554 80 355 2.0 4.0 0.00 0.00 0.00 56 1016.1
20260830093043 78 19 1.0 5.0 0.00 0.00 0.00 58 1016.3
20260830091540 78 284 1.0 4.0 0.00 0.00 0.00 59 1016.5
20260830090038 77 315 1.0 6.0 0.00 0.00 0.00 60 1016.7
20260830084536 75 317 2.0 5.0 0.00 0.00 0.00 62 1016.8
20260830083033 75 339 3.0 5.0 0.00 0.00 0.00 62 1016.9
20260830081528 74 319 3.0 5.0 0.00 0.00 0.00 66 1016.9
20260830080028 73 326 2.0 5.0 0.00 0.00 0.00 66 1017.1
20260830074534 72 343 2.0 6.0 0.00 0.00 0.00 69 1017.1
20260830073026 72 350 2.0 4.0 0.00 0.00 0.00 70 1017.1
20260830071544 71 323 3.0 4.0 0.00 0.00 0.00 71 1017.0
20260830070025 70 318 1.0 4.0 0.00 0.00 0.00 75 1017.0
20260830064524 69 350 3.0 8.0 0.00 0.00 0.00 76 1017.1
20260830063023 68 355 2.0 5.0 0.00 0.00 0.00 78 1017.0
20260830061522 67 256 0.0 0.0 0.00 0.00 0.00 79 1017.2
20260830060023 67 254 0.0 0.0 0.00 0.00 0.00 79 1017.1
20260830054533 66 254 0.0 0.0 0.00 0.00 0.00 81 1017.1
20260830053018 65 254 0.0 0.0 0.00 0.00 0.00 81 1016.9
20260830051520 65 254 0.0 0.0 0.00 0.00 0.00 81 1016.9
20260830050027 65 254 0.0 0.0 0.00 0.00 0.00 80 1016.7
20260830044513 65 254 0.0 0.0 0.00 0.00 0.00 80 1016.5